Location: Caltech
(34.1382°N, 118.1253°W)
Time: 03:12:15
(UTC-08:00)

SEDSat Delta rocket - Visible Passes

Search period start: 02 March 2015 00:00
Search period end: 12 March 2015 01:00
Orbit: 534 x 1007 km, 31.4° (Epoch: 01 March)

Date Brightness Start Highest point End Pass type
(mag) Time Alt. Az. Time Alt. Az. Time Alt. Az.
08 Mar 6.2 06:29:04 10° S 06:31:52 14° SE 06:35:03 10° ESE visible
09 Mar 6.3 05:51:04 10° SSE 05:52:11 11° SE 05:53:38 10° SE visible
11 Mar 5.5 06:13:52 10° SSW 06:18:27 26° SSE 06:23:34 10° E visible
